EW7356 Weather Reports


Display with metric or nautical units.
time (UTC)temp
F
wind
direction
speed
MPH
gust
MPH
rain 1hr
in
rain 24hr
in
rain mn
in
humidity
%
barometer
mb
20260508050039 36 0 0.0 0.0 0.00 0.00 0.00 73 1007.2
20260508045530 36 0 0.0 0.0 0.00 0.00 0.00 73 1007.1
20260508045030 37 0 0.0 0.0 0.00 0.00 0.00 73 1007.1
20260508044538 37 0 0.0 0.0 0.00 0.00 0.00 74 1007.2
20260508044030 37 0 0.0 0.0 0.00 0.00 0.00 74 1007.3
20260508043531 38 0 0.0 0.0 0.00 0.00 0.00 72 1007.3
20260508043041 38 0 0.0 1.0 0.00 0.00 0.00 71 1007.2
20260508042531 38 0 0.0 2.0 0.00 0.00 0.00 70 1007.3
20260508042030 38 283 0.0 2.0 0.00 0.00 0.00 69 1007.2
20260508041541 38 0 0.0 3.0 0.00 0.00 0.00 69 1007.3
20260508041030 38 0 0.0 3.0 0.00 0.00 0.00 70 1007.3
20260508040530 38 279 1.0 3.0 0.00 0.00 0.00 69 1007.3
20260508040050 38 284 1.0 3.0 0.00 0.00 0.00 70 1007.3
20260508035532 38 320 1.0 2.0 0.00 0.01 0.00 69 1007.3
20260508035031 38 324 0.0 2.0 0.00 0.01 0.00 70 1007.3
20260508034548 38 324 0.0 2.0 0.00 0.01 0.00 70 1007.2
20260508034032 38 0 0.0 2.0 0.00 0.01 0.00 68 1007.3
20260508033533 39 0 0.0 2.0 0.00 0.01 0.00 67 1007.2
20260508033051 39 0 0.0 1.0 0.00 0.01 0.00 66 1007.2
20260508032531 39 0 0.0 1.0 0.00 0.01 0.00 65 1007.3
20260508032032 39 0 0.0 1.0 0.00 0.01 0.00 65 1007.2
20260508031557 40 0 0.0 2.0 0.00 0.01 0.00 64 1007.2
20260508031030 40 0 0.0 2.0 0.00 0.01 0.00 64 1007.2
20260508030530 40 0 0.0 0.0 0.00 0.01 0.00 61 1007.2
20260508030040 41 0 0.0 0.0 0.00 0.01 0.00 60 1007.2
20260508025530 41 0 0.0 0.0 0.00 0.04 0.00 59 1007.3
20260508025030 41 0 0.0 0.0 0.00 0.04 0.00 58 1007.3
20260508024559 41 0 0.0 1.0 0.00 0.04 0.00 57 1007.3
20260508024030 42 0 0.0 1.0 0.00 0.04 0.00 55 1007.4
20260508023530 42 0 0.0 1.0 0.00 0.04 0.00 55 1007.3
20260508023037 42 0 0.0 1.0 0.00 0.04 0.00 53 1007.4
20260508022528 43 0 0.0 2.0 0.00 0.04 0.00 53 1007.4
20260508022031 43 0 0.0 3.0 0.00 0.04 0.00 53 1007.4
20260508021547 43 0 0.0 4.0 0.00 0.04 0.00 52 1007.3
20260508021030 43 320 0.0 4.0 0.00 0.04 0.00 53 1007.2
20260508020530 43 318 1.0 4.0 0.00 0.04 0.00 52 1007.0
20260508020049 44 293 1.0 6.0 0.00 0.04 0.00 52 1007.0
20260508015530 44 309 1.0 6.0 0.00 0.08 0.00 53 1007.0
20260508015030 44 286 2.0 8.0 0.00 0.08 0.00 52 1006.8
20260508014548 44 329 1.0 8.0 0.00 0.08 0.00 52 1006.8
20260508014031 44 325 2.0 8.0 0.00 0.08 0.00 51 1006.8
20260508013532 45 312 1.0 6.0 0.00 0.08 0.00 51 1006.6
20260508013039 45 340 1.0 5.0 0.00 0.08 0.00 51 1006.7
20260508012530 45 335 2.0 5.0 0.00 0.08 0.00 50 1006.7
20260508012030 46 0 1.0 7.0 0.00 0.08 0.00 50 1006.7
20260508011535 46 0 2.0 9.0 0.00 0.08 0.00 48 1006.7
20260508011031 46 344 3.0 9.0 0.00 0.08 0.00 48 1006.6
20260508010531 46 318 3.0 9.0 0.00 0.08 0.00 47 1006.5
20260508010051 46 360 3.0 9.0 0.00 0.08 0.00 47 1006.4
20260508005529 47 303 2.0 9.0 0.00 0.09 0.00 47 1006.3
20260508005031 47 310 1.0 9.0 0.00 0.09 0.00 47 1006.2
20260508004548 47 292 2.0 9.0 0.00 0.09 0.00 46 1006.1
20260508004032 47 325 1.0 8.0 0.00 0.09 0.00 45 1006.2
20260508003530 48 296 3.0 11.0 0.00 0.09 0.00 45 1006.0
20260508003047 48 313 2.0 11.0 0.00 0.09 0.00 45 1005.9
20260508002530 48 346 3.0 7.0 0.00 0.09 0.00 44 1005.9
20260508002030 48 266 2.0 8.0 0.00 0.09 0.00 43 1005.9
20260508001544 48 327 2.0 10.0 0.00 0.09 0.00 44 1005.8
20260508001030 49 306 3.0 10.0 0.00 0.09 0.00 42 1005.8
20260508000530 49 321 3.0 10.0 0.00 0.09 0.00 42 1005.7
20260508000035 49 289 4.0 10.0 0.00 0.09 0.00 41 1005.6
20260507235531 49 328 3.0 10.0 0.00 0.30 0.00 41 1005.8
20260507235030 49 337 1.0 8.0 0.00 0.30 0.00 42 1005.5
20260507234542 50 304 3.0 8.0 0.00 0.30 0.00 41 1005.6
20260507234030 50 87 2.0 12.0 0.00 0.30 0.00 41 1005.4
20260507233530 50 344 0.0 12.0 0.00 0.30 0.00 42 1005.4
20260507233042 50 281 2.0 9.0 0.00 0.30 0.00 39 1005.4
20260507232530 50 327 1.0 11.0 0.00 0.30 0.00 40 1005.2
20260507232031 50 331 3.0 11.0 0.00 0.30 0.00 40 1005.1
20260507231543 50 292 3.0 11.0 0.00 0.30 0.00 40 1005.3
20260507231030 51 338 3.0 13.0 0.00 0.30 0.00 39 1005.1
20260507230529 51 261 5.0 17.0 0.00 0.30 0.00 40 1005.2
20260507230050 51 250 7.0 17.0 0.00 0.30 0.00 40 1005.2
20260507225530 52 286 5.0 14.0 0.00 0.32 0.00 40 1005.0
20260507225031 52 252 5.0 14.0 0.00 0.32 0.00 40 1005.1
20260507224537 53 234 6.0 16.0 0.00 0.32 0.00 38 1005.1
20260507224030 53 319 7.0 19.0 0.00 0.32 0.00 38 1005.0
20260507223530 53 257 8.0 19.0 0.00 0.32 0.00 38 1005.0
20260507223043 54 286 5.0 12.0 0.00 0.32 0.00 38 1004.8
20260507222526 54 325 4.0 10.0 0.00 0.32 0.00 38 1004.9
20260507222031 54 286 4.0 10.0 0.00 0.32 0.00 38 1004.8
20260507221543 53 331 3.0 12.0 0.00 0.32 0.00 41 1004.8
20260507221032 52 277 5.0 16.0 0.00 0.32 0.00 39 1004.7
20260507220533 52 269 4.0 18.0 0.00 0.32 0.00 42 1004.7
20260507220042 52 234 8.0 18.0 0.00 0.32 0.00 39 1004.8
20260507215530 53 240 5.0 14.0 0.00 0.32 0.00 38 1004.8
20260507215034 53 319 5.0 10.0 0.00 0.32 0.00 40 1004.9
20260507214538 52 294 3.0 14.0 0.00 0.32 0.00 42 1005.0
20260507214030 52 261 5.0 15.0 0.00 0.32 0.00 42 1004.9
20260507213530 52 282 6.0 15.0 0.00 0.32 0.00 40 1004.9
20260507213039 52 248 5.0 12.0 0.00 0.32 0.00 40 1004.9
20260507212530 53 324 4.0 11.0 0.00 0.32 0.00 40 1004.9
20260507212031 53 292 3.0 13.0 0.00 0.32 0.00 41 1004.8
20260507211543 53 254 5.0 13.0 0.00 0.32 0.00 39 1004.9
20260507211030 53 159 6.0 13.0 0.00 0.32 0.00 40 1004.9
20260507210533 53 246 4.0 14.0 0.00 0.32 0.00 39 1004.8
20260507210053 53 270 6.0 14.0 0.00 0.32 0.00 40 1004.9
20260507205529 52 334 6.0 16.0 0.00 0.32 0.00 40 1004.9
20260507205028 53 296 6.0 16.0 0.00 0.32 0.00 39 1004.8
20260507204538 54 273 8.0 15.0 0.00 0.32 0.00 37 1004.7
20260507204028 54 328 4.0 15.0 0.00 0.32 0.00 39 1004.8
20260507203532 53 309 7.0 15.0 0.00 0.32 0.00 38 1004.7
20260507203107 54 276 6.0 15.0 0.00 0.32 0.00 38 1004.7
20260507202535 55 291 5.0 18.0 0.00 0.32 0.00 40 1004.6
20260507202029 54 325 8.0 22.0 0.00 0.32 0.00 40 1004.7
20260507201535 54 248 9.0 22.0 0.00 0.32 0.00 39 1004.7
20260507201029 53 269 4.0 21.0 0.00 0.32 0.00 43 1004.7
20260507200531 53 234 10.0 21.0 0.00 0.32 0.00 40 1004.6
20260507200041 53 246 8.0 16.0 0.00 0.32 0.00 41 1004.8
20260507195536 53 268 8.0 15.0 0.00 0.38 0.00 41 1004.7
20260507195031 53 274 5.0 15.0 0.00 0.38 0.00 41 1004.8
20260507194538 53 229 6.0 15.0 0.00 0.38 0.00 42 1004.9
20260507194028 54 276 7.0 15.0 0.00 0.38 0.00 39 1004.8
20260507193529 53 214 5.0 14.0 0.00 0.38 0.00 42 1004.9
20260507193041 52 301 5.0 11.0 0.00 0.38 0.00 42 1004.9
20260507192529 52 257 3.0 18.0 0.00 0.38 0.00 41 1005.0
20260507192029 53 304 5.0 18.0 0.00 0.38 0.00 41 1005.1
20260507191542 53 281 7.0 18.0 0.00 0.38 0.00 40 1005.1
20260507191030 53 274 8.0 17.0 0.00 0.38 0.00 39 1005.2
20260507190528 54 244 6.0 17.0 0.00 0.38 0.00 42 1005.2
20260507190034 53 249 6.0 17.0 0.00 0.38 0.00 42 1005.3
20260507185528 54 352 7.0 17.0 0.00 0.45 0.00 40 1005.4
20260507185030 54 271 7.0 16.0 0.00 0.45 0.00 45 1005.2
20260507184542 54 234 7.0 15.0 0.00 0.45 0.00 43 1005.3
20260507184028 54 240 5.0 17.0 0.00 0.45 0.00 44 1005.3
20260507183527 54 225 8.0 23.0 0.00 0.45 0.00 42 1005.4
20260507183041 53 247 6.0 23.0 0.00 0.45 0.00 42 1005.5
20260507182528 53 262 11.0 22.0 0.00 0.45 0.00 41 1005.4
20260507182027 53 211 10.0 18.0 0.00 0.45 0.00 42 1005.4
20260507181542 53 5 9.0 15.0 0.00 0.45 0.00 41 1005.4
20260507181029 54 308 5.0 12.0 0.00 0.45 0.00 41 1005.6
20260507180528 53 288 2.0 14.0 0.00 0.45 0.00 42 1005.6
20260507180041 54 301 7.0 15.0 0.00 0.45 0.00 43 1005.6
20260507175533 54 263 7.0 16.0 0.00 0.57 0.00 42 1005.5
20260507175027 54 0 6.0 18.0 0.00 0.57 0.00 44 1005.5
20260507174541 53 269 8.0 18.0 0.00 0.57 0.00 43 1005.6
20260507174031 53 290 8.0 18.0 0.00 0.57 0.00 44 1005.5
20260507173532 53 293 5.0 17.0 0.00 0.57 0.00 45 1005.4
20260507173110 53 267 8.0 19.0 0.00 0.57 0.00 43 1005.7
20260507172530 53 255 9.0 19.0 0.00 0.57 0.00 45 1005.6
20260507172031 53 267 9.0 19.0 0.00 0.57 0.00 42 1005.6
20260507171543 53 338 8.0 17.0 0.00 0.57 0.00 49 1005.8
20260507171028 53 314 6.0 20.0 0.00 0.57 0.00 49 1005.8
20260507170529 53 276 6.0 20.0 0.00 0.57 0.00 51 1006.0
20260507170041 52 355 6.0 20.0 0.00 0.57 0.00 47 1006.1
20260507165527 52 298 6.0 23.0 0.00 0.60 0.00 47 1006.1
20260507165029 52 315 7.0 23.0 0.00 0.60 0.00 46 1006.2
20260507164539 53 264 9.0 21.0 0.00 0.60 0.00 51 1006.3
20260507164029 52 290 8.0 18.0 0.00 0.60 0.00 46 1006.2
20260507163531 52 288 10.0 18.0 0.00 0.60 0.00 45 1006.2
20260507163041 52 304 9.0 17.0 0.00 0.60 0.00 47 1006.3
20260507162535 52 277 5.0 11.0 0.00 0.60 0.00 51 1006.3
20260507162027 52 243 3.0 9.0 0.00 0.60 0.00 53 1006.4
20260507161546 52 40 3.0 19.0 0.00 0.60 0.00 50 1006.4
20260507161028 52 289 5.0 19.0 0.00 0.60 0.00 51 1006.5
20260507160530 52 344 8.0 19.0 0.00 0.60 0.00 50 1006.8
20260507160038 51 263 7.0 18.0 0.00 0.60 0.00 54 1006.7
20260507155532 50 16 5.0 18.0 0.00 0.60 0.00 56 1006.8
20260507155030 51 273 6.0 18.0 0.00 0.60 0.00 52 1006.8
20260507154540 51 293 6.0 18.0 0.00 0.60 0.00 53 1006.8
20260507154029 50 334 7.0 15.0 0.00 0.60 0.00 59 1006.9
20260507153532 50 217 7.0 15.0 0.00 0.60 0.00 54 1006.8
20260507153034 50 275 5.0 13.0 0.00 0.60 0.00 56 1006.8
20260507152529 50 271 7.0 13.0 0.00 0.60 0.00 56 1006.9
20260507152032 50 283 5.0 12.0 0.00 0.60 0.00 58 1006.9
20260507151533 49 260 3.0 14.0 0.00 0.60 0.00 60 1006.9
20260507151030 48 271 7.0 19.0 0.00 0.60 0.00 59 1007.1
20260507150528 49 257 9.0 19.0 0.00 0.60 0.00 56 1006.9
20260507150043 50 296 5.0 16.0 0.00 0.60 0.00 59 1007.0
20260507145528 49 266 3.0 25.0 0.00 0.60 0.00 63 1007.0
20260507145029 49 294 10.0 25.0 0.00 0.60 0.00 58 1007.0
20260507144539 49 286 7.0 15.0 0.00 0.60 0.00 63 1006.9
20260507144028 48 287 8.0 15.0 0.00 0.60 0.00 62 1006.8
20260507143529 48 346 5.0 15.0 0.00 0.60 0.00 65 1006.8
20260507143054 48 274 7.0 15.0 0.00 0.60 0.00 66 1006.8
20260507142529 48 296 7.0 14.0 0.00 0.60 0.00 69 1006.9
20260507142031 48 195 7.0 12.0 0.00 0.60 0.00 70 1006.9
20260507141549 47 319 5.0 12.0 0.00 0.60 0.00 73 1006.8
20260507141028 47 203 4.0 12.0 0.00 0.60 0.00 74 1006.7
20260507140530 47 267 5.0 12.0 0.00 0.60 0.00 72 1006.7
20260507140035 47 277 6.0 13.0 0.00 0.60 0.00 74 1006.8
20260507135531 47 304 5.0 13.0 0.00 0.60 0.00 77 1006.7
20260507135031 47 319 4.0 11.0 0.00 0.60 0.00 79 1006.8
20260507134544 47 236 3.0 11.0 0.00 0.60 0.00 84 1006.7
20260507134027 46 250 6.0 11.0 0.00 0.60 0.00 84 1006.7
20260507133528 45 302 4.0 11.0 0.00 0.60 0.00 83 1006.8
20260507133108 45 275 4.0 11.0 0.00 0.60 0.00 84 1006.8
20260507132536 45 282 3.0 10.0 0.00 0.60 0.00 86 1006.9
20260507132029 45 227 3.0 10.0 0.00 0.60 0.00 85 1007.0
20260507131545 45 308 5.0 10.0 0.00 0.60 0.00 85 1006.9
20260507131029 46 281 4.0 8.0 0.00 0.60 0.00 84 1007.0
20260507130532 46 267 3.0 8.0 0.00 0.60 0.00 86 1006.9
20260507130048 46 310 2.0 10.0 0.00 0.60 0.00 86 1007.0
20260507125528 45 265 3.0 10.0 0.00 0.60 0.00 87 1006.9
20260507125031 46 261 3.0 7.0 0.00 0.60 0.00 87 1007.0
20260507124535 45 241 2.0 7.0 0.00 0.60 0.00 90 1007.0
20260507124028 44 292 4.0 7.0 0.00 0.60 0.00 87 1007.0
20260507123536 44 266 2.0 8.0 0.00 0.60 0.00 89 1007.0
20260507123047 44 251 4.0 8.0 0.00 0.60 0.00 87 1006.9
20260507122527 44 236 3.0 8.0 0.00 0.60 0.00 88 1006.9
20260507122029 44 254 4.0 9.0 0.00 0.60 0.00 87 1006.9
20260507121542 44 234 3.0 9.0 0.00 0.60 0.00 89 1006.8
20260507121030 44 252 3.0 9.0 0.00 0.60 0.00 89 1006.8
20260507120529 43 258 3.0 9.0 0.00 0.60 0.00 91 1006.7
20260507120039 43 250 2.0 7.0 0.00 0.60 0.00 93 1006.7
20260507115550 42 329 2.0 5.0 0.00 0.60 0.00 94 1006.7
20260507115030 42 344 0.0 7.0 0.00 0.60 0.00 94 1006.8
20260507114545 42 0 1.0 7.0 0.00 0.60 0.00 94 1006.8
20260507114027 42 283 1.0 4.0 0.00 0.60 0.00 94 1006.8
20260507113529 41 265 2.0 4.0 0.00 0.60 0.00 95 1006.8
20260507113036 41 274 1.0 6.0 0.00 0.60 0.00 95 1006.7
20260507112529 41 277 2.0 6.0 0.00 0.60 0.00 95 1006.7
20260507112029 41 288 2.0 7.0 0.00 0.60 0.00 96 1006.7
20260507111542 41 256 1.0 7.0 0.00 0.60 0.00 96 1006.7
20260507111026 41 285 2.0 4.0 0.00 0.60 0.00 96 1006.7
20260507110528 41 265 1.0 6.0 0.00 0.60 0.00 96 1006.7
20260507110046 41 291 2.0 6.0 0.00 0.60 0.00 96 1006.7
20260507105529 40 270 2.0 6.0 0.00 0.60 0.00 96 1006.6
20260507105029 40 294 1.0 4.0 0.00 0.60 0.00 96 1006.7
20260507104540 40 0 1.0 6.0 0.00 0.60 0.00 96 1006.5
20260507104027 40 276 2.0 6.0 0.00 0.60 0.00 96 1006.6
20260507103529 39 0 1.0 3.0 0.00 0.60 0.00 96 1006.5
20260507103049 39 284 1.0 3.0 0.00 0.60 0.00 96 1006.5
20260507102529 39 0 1.0 3.0 0.00 0.60 0.00 96 1006.5
20260507102029 39 284 1.0 3.0 0.00 0.60 0.00 96 1006.4
20260507101546 39 288 0.0 4.0 0.00 0.60 0.00 96 1006.5
20260507101027 39 287 1.0 4.0 0.00 0.60 0.00 96 1006.5
20260507100527 39 257 1.0 3.0 0.00 0.60 0.00 95 1006.6
20260507100044 39 267 1.0 3.0 0.00 0.60 0.00 95 1006.4
20260507095527 39 267 1.0 3.0 0.00 0.60 0.00 95 1006.4
20260507095030 39 300 0.0 3.0 0.00 0.60 0.00 95 1006.4
20260507094553 39 279 0.0 3.0 0.00 0.60 0.00 95 1006.5
20260507094029 39 270 1.0 3.0 0.00 0.60 0.00 95 1006.5
20260507093529 39 257 1.0 4.0 0.00 0.60 0.00 95 1006.6
20260507093040 40 265 1.0 4.0 0.00 0.60 0.00 95 1006.4
20260507092528 40 243 1.0 4.0 0.00 0.60 0.00 95 1006.6
20260507092029 40 270 1.0 4.0 0.00 0.60 0.00 95 1006.6
20260507091535 40 264 1.0 4.0 0.00 0.60 0.00 95 1006.6
20260507091029 40 273 2.0 4.0 0.00 0.60 0.00 95 1006.8
20260507090526 39 257 0.0 3.0 0.00 0.60 0.00 94 1006.8
20260507090044 39 252 1.0 3.0 0.00 0.60 0.00 94 1006.7
20260507085527 40 0 1.0 4.0 0.00 0.60 0.00 94 1006.4
20260507085031 40 0 1.0 4.0 0.00 0.60 0.00 94 1006.3
20260507084541 40 322 1.0 4.0 0.00 0.60 0.00 94 1006.5
20260507084030 40 0 0.0 2.0 0.00 0.60 0.00 94 1006.5
20260507083531 40 0 0.0 3.0 0.00 0.60 0.00 94 1006.2
20260507083038 40 293 0.0 3.0 0.00 0.60 0.00 94 1006.6
20260507082531 40 302 0.0 6.0 0.00 0.60 0.00 94 1006.4
20260507082030 40 296 0.0 6.0 0.00 0.60 0.00 94 1006.3
20260507081542 40 276 0.0 6.0 0.00 0.60 0.00 94 1006.3
20260507081033 40 279 1.0 6.0 0.00 0.60 0.00 93 1006.3
20260507080529 41 311 0.0 3.0 0.00 0.60 0.00 93 1006.1
20260507080039 41 333 0.0 4.0 0.00 0.60 0.00 93 1006.3
20260507075532 41 336 0.0 4.0 0.00 0.60 0.00 93 1006.5
20260507075031 41 277 2.0 4.0 0.00 0.60 0.00 94 1006.5
20260507074548 41 290 1.0 4.0 0.00 0.60 0.00 94 1006.2
20260507074030 41 328 1.0 6.0 0.00 0.60 0.00 93 1006.2
20260507073531 41 338 1.0 7.0 0.00 0.60 0.00 93 1006.1
20260507073048 41 321 2.0 7.0 0.00 0.60 0.00 93 1006.2
20260507072531 41 275 1.0 4.0 0.00 0.60 0.00 93 1006.4
20260507072030 41 259 1.0 4.0 0.00 0.60 0.00 93 1006.1
20260507071542 41 263 1.0 4.0 0.00 0.60 0.00 93 1005.6
20260507071030 41 302 1.0 4.0 0.00 0.60 0.00 93 1005.8
20260507070530 41 305 1.0 6.0 0.00 0.60 0.00 93 1005.8
20260507070049 42 268 2.0 8.0 0.00 0.60 0.00 93 1005.8
20260507065527 42 302 2.0 8.0 0.00 0.60 0.00 93 1005.6
20260507065027 42 305 3.0 6.0 0.00 0.60 0.00 93 1005.6
20260507064546 42 284 2.0 6.0 0.00 0.60 0.00 93 1005.7
20260507064032 42 9 2.0 6.0 0.00 0.60 0.00 93 1005.8
20260507063529 42 340 2.0 6.0 0.00 0.60 0.00 93 1005.9
20260507063039 42 333 2.0 5.0 0.00 0.60 0.00 93 1006.1
20260507062530 42 336 2.0 7.0 0.00 0.60 0.00 94 1006.0
20260507062032 42 296 2.0 7.0 0.00 0.60 0.00 93 1005.9
20260507061545 42 269 2.0 7.0 0.00 0.60 0.00 94 1005.9
20260507061030 42 267 2.0 6.0 0.00 0.60 0.00 93 1005.9
20260507060530 42 342 2.0 7.0 0.00 0.60 0.00 93 1005.9
20260507060042 42 285 2.0 7.0 0.00 0.60 0.00 93 1006.1
20260507055531 42 0 3.0 9.0 0.00 0.60 0.00 94 1006.1
20260507055031 42 272 2.0 9.0 0.00 0.60 0.00 94 1006.0
20260507054540 42 309 4.0 10.0 0.00 0.60 0.00 94 1006.1
20260507054034 42 265 3.0 10.0 0.00 0.60 0.00 94 1006.3
20260507053531 42 339 3.0 10.0 0.00 0.60 0.00 94 1006.4
20260507053040 42 329 3.0 10.0 0.00 0.60 0.00 94 1006.5
20260507052530 43 313 3.0 10.0 0.00 0.60 0.00 94 1006.3
20260507052030 43 333 3.0 8.0 0.00 0.60 0.00 94 1006.0
20260507051540 43 250 3.0 8.0 0.00 0.60 0.00 94 1006.2
20260507051029 43 294 2.0 6.0 0.00 0.60 0.00 94 1006.2
20260507050529 43 331 2.0 6.0 0.00 0.60 0.00 94 1005.8